Location: Launois
(49.6535°N, 4.5395°E)
Time: 14:33:09
(UTC+00:00)

Cosmos 1300 - Pass Details

Date: 23 May 2024
Orbit: 465 x 468 km, 82.5° (Epoch: 16 June)

Event Time Altitude Azimuth Distance (km) Brightness Sun altitude
Rises 00:53:52 0° 341° (NNW) 2,518 7.1 -17.7°
Reaches altitude 10° 00:56:07 10° 330° (NNW) 1,634 5.8 -17.6°
Maximum altitude 00:59:15 29° 269° (W) 882 3.6 -17.5°
Enters shadow 00:59:37 29° 256° (WSW) 896 3.6 -17.4°
